Location: Newark
(28.1667°N, 17.3333°W)
Time: 12:47:35
(UTC+00:00)

OTV 5 (USA 277) - Visible Passes

Search period start: 22 April 2019 00:00
Search period end: 02 May 2019 00:00
Orbit: 309 x 326 km, 54.5° (Epoch: 21 April)

Date Brightness Start Highest point End Pass type
(mag) Time Alt. Az. Time Alt. Az. Time Alt. Az.
22 Apr ? 05:53:43 10° NNW 05:56:21 59° NE 05:58:57 10° SE visible
22 Apr ? 20:34:21 10° SSW 20:37:00 51° SE 20:39:11 14° NE visible
23 Apr ? 06:08:40 10° WNW 06:10:59 27° SW 06:13:16 10° S visible
23 Apr ? 20:49:12 10° WSW 20:51:43 32° NW 20:54:13 10° NNE visible
24 Apr ? 04:51:47 28° ENE 04:51:47 28° ENE 04:53:52 10° ESE visible
24 Apr ? 21:05:45 10° WNW 21:06:35 11° NW 21:07:24 10° NNW visible
